• In Latvia
  • List of Countries
  • For 7 days
  • Water Temperature
  • Satellite Maps
  • Weather Map
  • Weather Widgets
  • user-avatar
    Login

    Hourly Weather Nagasaki

    Today, 21 February, Wednesday

    Time Temperature Precipitation Wind Pressure Humidity
    00:00 +8°C° 0 mm 6 mps 761 mmHg 51%
    01:00 +8°C° 0.1 mm 6 mps 761 mmHg 54%
    02:00 +8°C° 0.1 mm 6 mps 761 mmHg 56%
    03:00 +7°C° 0 mm 6 mps 761 mmHg 60%
    04:00 +7°C° 0.1 mm 6 mps 761 mmHg 62%
    05:00 +7°C° 0.1 mm 6 mps 761 mmHg 65%
    06:00 +7°C° 0.1 mm 6 mps 761 mmHg 67%
    07:00 +8°C° 0 mm 5 mps 762 mmHg 64%
    08:00 +8°C° 0 mm 5 mps 762 mmHg 60%
    09:00 +9°C° 0 mm 5 mps 762 mmHg 56%
    10:00 +10°C° 0 mm 5 mps 762 mmHg 53%
    11:00 +12°C° 0 mm 5 mps 762 mmHg 49%
    12:00 +12°C° 0 mm 5 mps 762 mmHg 46%
    13:00 +12°C° 0 mm 5 mps 762 mmHg 44%
    14:00 +11°C° 0 mm 6 mps 762 mmHg 42%
    15:00 +12°C° 0 mm 4 mps 761 mmHg 44%
    16:00 +11°C° 0 mm 4 mps 761 mmHg 47%
    17:00 +10°C° 0 mm 4 mps 761 mmHg 50%
    18:00 +8°C° 0 mm 5 mps 762 mmHg 53%
    19:00 +8°C° 0 mm 5 mps 762 mmHg 58%
    20:00 +7°C° 0 mm 5 mps 762 mmHg 62%
    21:00 +6°C° 0 mm 5 mps 762 mmHg 67%
    22:00 +6°C° 0 mm 5 mps 762 mmHg 70%
    23:00 +6°C° 0 mm 5 mps 762 mmHg 73%

    Tomorrow, 22 February, Thursday

    Time Temperature Precipitation Wind Pressure Humidity
    00:00 +5°C° 0 mm 4 mps 763 mmHg 75%
    01:00 +5°C° 0 mm 5 mps 763 mmHg 78%
    02:00 +5°C° 0 mm 5 mps 763 mmHg 80%
    03:00 +5°C° 0 mm 5 mps 763 mmHg 83%
    04:00 +5°C° 0 mm 5 mps 763 mmHg 85%
    05:00 +5°C° 0 mm 5 mps 763 mmHg 87%
    06:00 +5°C° 0 mm 5 mps 763 mmHg 89%
    07:00 +5°C° 0 mm 5 mps 763 mmHg 84%
    08:00 +6°C° 0 mm 5 mps 763 mmHg 79%
    09:00 +6°C° 0 mm 4 mps 763 mmHg 74%
    10:00 +8°C° 0 mm 4 mps 763 mmHg 65%
    11:00 +10°C° 0 mm 4 mps 763 mmHg 57%
    12:00 +11°C° 0 mm 4 mps 763 mmHg 49%
    13:00 +11°C° 0 mm 4 mps 763 mmHg 46%
    14:00 +11°C° 0 mm 4 mps 762 mmHg 43%
    15:00 +11°C° 0 mm 4 mps 762 mmHg 40%
    16:00 +9°C° 0 mm 5 mps 762 mmHg 43%
    17:00 +8°C° 0 mm 5 mps 763 mmHg 46%
    18:00 +8°C° 0 mm 6 mps 763 mmHg 50%
    19:00 +7°C° 0 mm 6 mps 763 mmHg 56%
    20:00 +5°C° 0 mm 6 mps 763 mmHg 62%
    21:00 +4°C° 0 mm 6 mps 763 mmHg 68%
    22:00 +4°C° 0 mm 6 mps 764 mmHg 67%
    23:00 +4°C° 0 mm 6 mps 764 mmHg 66%

    Day after tomorrow, 23 February, Friday

    Time Temperature Precipitation Wind Pressure Humidity
    00:00 +3°C° 0 mm 5 mps 764 mmHg 65%
    01:00 +3°C° 0 mm 5 mps 764 mmHg 62%
    02:00 +3°C° 0 mm 5 mps 764 mmHg 59%
    03:00 +2°C° 0 mm 5 mps 764 mmHg 56%
    04:00 +2°C° 0 mm 5 mps 764 mmHg 57%
    05:00 +2°C° 0 mm 5 mps 764 mmHg 58%
    06:00 +3°C° 0 mm 4 mps 764 mmHg 59%
    07:00 +4°C° 0 mm 4 mps 764 mmHg 56%
    08:00 +7°C° 0 mm 3 mps 765 mmHg 52%
    09:00 +8°C° 0 mm 3 mps 765 mmHg 49%
    10:00 +9°C° 0 mm 3 mps 765 mmHg 45%
    11:00 +11°C° 0 mm 4 mps 765 mmHg 41%
    12:00 +12°C° 0 mm 4 mps 765 mmHg 36%
    13:00 +12°C° 0 mm 4 mps 765 mmHg 37%
    14:00 +13°C° 0 mm 4 mps 765 mmHg 37%
    15:00 +13°C° 0 mm 5 mps 765 mmHg 37%
    16:00 +12°C° 0 mm 5 mps 765 mmHg 40%
    17:00 +11°C° 0 mm 4 mps 765 mmHg 44%
    18:00 +11°C° 0 mm 4 mps 765 mmHg 47%
    19:00 +10°C° 0 mm 4 mps 765 mmHg 50%
    20:00 +10°C° 0 mm 4 mps 766 mmHg 54%
    21:00 +8°C° 0 mm 4 mps 766 mmHg 57%
    22:00 +8°C° 0 mm 4 mps 766 mmHg 59%
    23:00 +8°C° 0 mm 4 mps 766 mmHg 62%

    24 February, Saturday

    Time Temperature Precipitation Wind Pressure Humidity
    00:00 +8°C° 0 mm 4 mps 766 mmHg 64%
    01:00 +8°C° 0 mm 5 mps 766 mmHg 67%
    02:00 +8°C° 0 mm 5 mps 766 mmHg 71%
    03:00 +8°C° 0 mm 5 mps 766 mmHg 74%
    04:00 +8°C° 0 mm 6 mps 767 mmHg 77%
    05:00 +8°C° 0 mm 6 mps 767 mmHg 80%
    06:00 +8°C° 0 mm 7 mps 767 mmHg 82%
    07:00 +8°C° 0 mm 6 mps 767 mmHg 73%
    08:00 +9°C° 0 mm 6 mps 768 mmHg 63%
    09:00 +10°C° 0 mm 6 mps 768 mmHg 53%
    10:00 +11°C° 0 mm 6 mps 768 mmHg 46%
    11:00 +13°C° 0 mm 6 mps 768 mmHg 40%
    12:00 +14°C° 0 mm 5 mps 768 mmHg 33%
    13:00 +14°C° 0 mm 5 mps 768 mmHg 32%
    14:00 +14°C° 0 mm 5 mps 767 mmHg 32%
    15:00 +14°C° 0 mm 5 mps 767 mmHg 31%
    16:00 +13°C° 0 mm 6 mps 766 mmHg 32%
    17:00 +10°C° 0 mm 6 mps 766 mmHg 33%
    18:00 +9°C° 0 mm 6 mps 766 mmHg 33%
    19:00 +9°C° 0 mm 7 mps 767 mmHg 36%
    20:00 +8°C° 0 mm 7 mps 767 mmHg 39%
    21:00 +8°C° 0 mm 7 mps 767 mmHg 41%
    22:00 +7°C° 0 mm 6 mps 767 mmHg 43%
    23:00 +7°C° 0 mm 6 mps 767 mmHg 44%

    25 February, Sunday

    Time Temperature Precipitation Wind Pressure Humidity
    00:00 +7°C° 0 mm 5 mps 767 mmHg 45%
    01:00 +7°C° 0.3 mm 5 mps 767 mmHg 47%
    02:00 +7°C° 0.3 mm 5 mps 767 mmHg 48%
    03:00 +7°C° 0.3 mm 5 mps 767 mmHg 49%
    04:00 +6°C° 0.4 mm 5 mps 766 mmHg 52%
    05:00 +5°C° 0.4 mm 6 mps 766 mmHg 54%
    06:00 +5°C° 0.4 mm 6 mps 766 mmHg 56%
    07:00 +5°C° 0.7 mm 6 mps 766 mmHg 57%
    08:00 +5°C° 0.7 mm 7 mps 766 mmHg 58%
    09:00 +5°C° 0.7 mm 7 mps 767 mmHg 58%
    10:00 +5°C° 0.9 mm 7 mps 767 mmHg 59%
    11:00 +7°C° 0.9 mm 6 mps 767 mmHg 59%
    12:00 +7°C° 0.9 mm 6 mps 766 mmHg 59%
    13:00 +8°C° 0.4 mm 6 mps 766 mmHg 57%
    14:00 +8°C° 0.4 mm 5 mps 765 mmHg 56%
    15:00 +9°C° 0.4 mm 5 mps 765 mmHg 54%
    16:00 +8°C° 0.1 mm 5 mps 765 mmHg 53%
    17:00 +8°C° 0.1 mm 5 mps 765 mmHg 52%
    18:00 +8°C° 0.1 mm 5 mps 765 mmHg 51%
    19:00 +7°C° 0 mm 5 mps 765 mmHg 52%
    20:00 +7°C° 0 mm 5 mps 765 mmHg 54%
    21:00 +5°C° 0 mm 6 mps 766 mmHg 55%
    22:00 +6°C° 0 mm 5 mps 766 mmHg 56%
    23:00 +6°C° 0 mm 5 mps 766 mmHg 58%

    26 February, Monday

    Time Temperature Precipitation Wind Pressure Humidity
    00:00 +5°C° 0 mm 5 mps 765 mmHg 59%
    01:00 +5°C° 0 mm 5 mps 765 mmHg 62%
    02:00 +4°C° 0 mm 6 mps 765 mmHg 64%
    03:00 +4°C° 0 mm 6 mps 765 mmHg 67%
    04:00 +3°C° 0 mm 6 mps 765 mmHg 69%
    05:00 +3°C° 0 mm 6 mps 765 mmHg 71%
    06:00 +3°C° 0 mm 6 mps 765 mmHg 73%
    07:00 +4°C° 0 mm 6 mps 765 mmHg 66%
    08:00 +5°C° 0 mm 6 mps 765 mmHg 59%
    09:00 +7°C° 0 mm 5 mps 766 mmHg 53%
    10:00 +9°C° 0 mm 5 mps 765 mmHg 44%
    11:00 +12°C° 0 mm 4 mps 765 mmHg 36%
    12:00 +13°C° 0 mm 4 mps 765 mmHg 27%
    13:00 +14°C° 0 mm 4 mps 765 mmHg 26%
    14:00 +15°C° 0 mm 4 mps 764 mmHg 26%
    15:00 +16°C° 0 mm 3 mps 764 mmHg 25%
    16:00 +14°C° 0 mm 4 mps 764 mmHg 29%
    17:00 +13°C° 0 mm 4 mps 764 mmHg 34%
    18:00 +11°C° 0 mm 4 mps 764 mmHg 38%
    19:00 +10°C° 0 mm 4 mps 764 mmHg 43%
    20:00 +10°C° 0 mm 4 mps 765 mmHg 47%
    21:00 +8°C° 0 mm 4 mps 765 mmHg 52%
    22:00 +7°C° 0 mm 4 mps 765 mmHg 54%
    23:00 +8°C° 0 mm 3 mps 765 mmHg 56%
    Show more